Regional Weather Roundup
Issued by NWS Pendleton, OR

Home | Current Version | Previous Version | Text Only | Print | Product List | Glossary On
Versions: 1 2 3 4 5 6 7 8 9 10 11 12 13 14 15 16 17 18 19 20 21 22 23 24 25 26 27 28 29 30 31 32 33 34 35 36 37 38 39 40 41 42 43 44 45 46 47 48 49 50
000
ASUS46 KPDT 300425
RWRPDT
PENDLETON REGIONAL WEATHER ROUNDUP
NATIONAL WEATHER SERVICE PENDLETON OREGON
900 PM PDT SAT AUG 29 2015

NOTE: FAIR INDICATES FEW OR NO CLOUDS BELOW 12,000 FEET WITH NO
SIGNIFICANT WEATHER AND/OR OBSTRUCTIONS TO VISIBILITY.

# INDICATES UNOFFICIAL STATION AND DATA

WAZ520-300510-
EAST SLOPES OF WASHINGTON CASCADES

CITY            SKY/WX      TMP DP  RH  WIND    PRES   REMARKS
#BULLFROG 2SW   N/A         54  49  83  S2      27.43R
#CLE ELUM HS    N/A         56  51  83  CALM    29.75F
#CLE ELUM LAKE  N/A         55  50  83  CALM    29.68S
#CLIFFDEL 2NW   N/A         57  46  67  NW1     N/A
#GLENWOOD       N/A         56  53  90  SE1     29.80R
#MANASTASH CYN  N/A         54  43  66  CALM    29.82S
#NELSON         N/A         58  54  87  CALM    29.73R
#NELSON 3SW     N/A         54  49  83  CALM    29.89R
#NILE           N/A         58  46  64  CALM    29.02S
#RONALD 2NW     N/A         56   0  10  NE1     29.71S
#SNOWDEN        N/A         53  43  69  CALM    N/A
#TEANAWAY 4NE   N/A         56  49  77  CALM    N/A
#TROUT LAKE 1NE N/A         55  54  96  CALM    29.82R
$$

WAZ521-300510-
SIMCOE HIGHLANDS

CITY            SKY/WX      TMP DP  RH  WIND    PRES   REMARKS
#BICKLETON HS   N/A         58  39  49  W18     N/A
#CENTERVILLE 4W N/A         61  50  67  CALM    29.63S
#CENTERVILLE 1SWN/A         60  49  67  CALM    29.78R
#GOLDENDALE     N/A         62  50  65  W7      N/A
#GOLDENDALE 1NE N/A         62  41  46  W1      N/A
#GOLDENDALE 5WNWN/A         61  51  70  NW6     29.77R
#GOODNOE HILLS  N/A         67  50  54  W14     N/A
#LYLE 6NE       N/A         61  53  75  SW1     29.76R
$$

WAZ026-300510-
KITTITAS VALLEY

CITY            SKY/WX      TMP DP  RH  WIND    PRES   REMARKS
ELLENSBURG AP   PTCLDY      66  44  45  SW7     29.79S
YTC-OPS AREA    CLEAR       54  47  77  S21G26  29.80R
#ELLENSBURG CWU N/A         64  45  50  CALM    29.69R
#ELLENSBURG 3NE N/A         64  46  52  CALM    29.80S
#ELLENSBURG 1E  N/A         62  43  50  CALM    N/A
#KITTITAS 4N    N/A         62  44  52  CALM    29.80R
#KITTITAS 3S    N/A         60  49  67  CALM    29.71R
#THORP 6N       N/A         60  44  55  S5      29.72S
$$

WAZ027-300510-
YAKIMA VALLEY

CITY            SKY/WX      TMP DP  RH  WIND    PRES   REMARKS
SUNNYSIDE AP    CLEAR       61  50  67  N5      29.82R
YAKIMA AIRPORT  CLEAR       67  48  50  S13     29.80R
YAKIMA-VAGABOND MOCLEAR     64  48  56  SW14    29.80R
#DONALD 2NE     N/A         63  44  50  W1      28.67R
#GRANDVIEW      N/A         65  49  56  CALM    29.79R
#MABTON         N/A         65  51  60  W2      29.80R
#MOXEE 2E       N/A         63  39  41  SW10    29.77R
#NACHES 2SW     N/A         61  49  65  W5      29.80S
#OUTLOOK DOT    N/A         N/A N/A N/A SW6     N/A
#SELAH 8E       N/A         59  49  69  S12     N/A
#TERRACE HTS    N/A         60  50  69  CALM    29.72R
#TOPPENISH      N/A         66  50  56  W5      29.69R
#WAPATO 4NE     N/A         63  44  50  W1      28.67R
#W YAKIMA       N/A         62  50  65  CALM    29.75R
#WHITE SWAN 5E  N/A         66  50  56  SW16G25 29.76S
#WILEY CITY 3W  N/A         63  44  50  SW2     29.78R
$$

WAZ028-300510-
LOWER COLUMBIA BASIN...WASHINGTON

CITY            SKY/WX      TMP DP  RH  WIND    PRES   REMARKS
PASCO           PTCLDY      70  47  44  NW9     29.82R
#BENTON CITY    N/A         68  49  51  W5      29.69R
#CONNELL 5N     N/A         67  47  49  W7      29.77R
#CONNELL 5NW    N/A         64  49  58  W3      29.74R
#ELTOPIA 6NW    N/A         66  50  56  W5      28.79R
#KAHLOTUS       N/A         69  47  45  NW10    29.77R
#KENNEWICK      N/A         54  49  83  S2      27.43R
#KENNEWICK 3S   N/A         69  47  45  CALM    29.79R
#PATERSON       N/A         70  49  47  W5      29.79R
#PROSSER        N/A         67  47  49  SW6     29.77R
#SAGEMOOR 2W    N/A         67  52  59  CALM    29.64R
#TOUCHET 2S     N/A         70  46  42  SW5     29.78R
#WEST PASCO     N/A         71  49  46  CALM    29.77R
$$

WAZ029-300510-
FOOTHILLS OF THE BLUES...WASHINGTON

CITY            SKY/WX      TMP DP  RH  WIND    PRES   REMARKS
WALLA WALLA AP  CLOUDY      72  43  35  S7      29.85R
#DAYTON SCHOOL  N/A         69  39  33  CALM    29.85R
#LOWDEN 2SE     N/A         70  49  47  S3      29.78R
#PLEASANT VIEW 1N/A         64  42  45  S1      29.80R
#PRESCOTT       N/A         64  46  52  CALM    29.78R
#SUDBURY        N/A         69  N/A N/A CALM    N/A
#WHITMAN COLLEGEN/A         71  46  41  SE3     29.84R
#WAITSBURG 8N   N/A         61  14  16  CALM    29.68R
#WALLA WALLA U  N/A         72  48  43  CALM    29.79R
#WHITMAN MISSIONN/A         68  50  53  CALM    29.80R
$$

WAZ030-300510-
BLUE MOUNTAINS...WASHINGTON

CITY            SKY/WX      TMP DP  RH  WIND    PRES   REMARKS
#SKI BLUEWOOD   N/A         55  40  57  CALM    29.95R
$$

ORZ009-041-WAZ024-300510-
COLUMBIA RIVER GORGE

CITY            SKY/WX      TMP DP  RH  WIND    PRES   REMARKS
THE DALLES AP   PTCLDY      67  54  63  NW12    29.82R
#ARLINGTON AIRPON/A         66  51  58  W6      30.59R
#CELILO DOT     N/A         69  52  55  SW6     N/A
#MOSIER 1S      N/A         61  46  58  CALM    29.84S
#RUFUS DOT      N/A         73  53  49  W15     N/A

$$

ORZ510-300510-
NORTH CENTRAL OREGON

CITY            SKY/WX      TMP DP  RH  WIND    PRES   REMARKS
#CHENOWITH 1W   N/A         58  53  83  NW14    N/A
#DUFUR 9E       N/A         61  48  62  SW21    29.82R
#GRASS VALLEY 1SN/A         61  48  62  W15     29.84R
#KENT DOT       N/A         59  42  53  N12     N/A
#MAUPIN SCHOOL  N/A         67  51  56  N2      29.86R
#MORO SCHOOL    N/A         65  53  65  SW7     29.87R
#SHANIKO 5WSW   N/A         60  37  42  SW8     N/A
#SHANIKO 4NW    N/A         59  41  51  SW12    29.91S
#TYGH VALLEY 2NEN/A         65  50  58  W6      29.79R
#WAPANITIA AIRPON/A         61  50  67  W1      29.81R
#WASCO DOT      N/A         63  50  62  SW3     N/A
#WASCO AIRPORT  N/A         59  47  64  SW5     N/A
#WASCO 5NE      N/A         60  48  64  CALM    29.78R
$$

ORZ511-300510-
CENTRAL OREGON

CITY            SKY/WX      TMP DP  RH  WIND    PRES   REMARKS
BEND AIRPORT    CLEAR       61  37  41  SW6     29.94R
PRINEVILLE AP   CLEAR       57  36  45  SW7     29.92R
REDMOND AIRPORT MOCLEAR     63  38  39  SW5     29.91R
#BEND-AWBREY    N/A         61  43  51  W3      29.77R
#BEND-KIM LN    N/A         60  42  51  CALM    29.91R
#CULVER         N/A         62  45  54  SW1     29.86R
#LAKE BILLY CHINN/A         62  24  23  SW6     29.95R
#MADRAS         N/A         63  45  52  W7      N/A
#POWELL BUTTE 3EN/A         64  37  37  CALM    N/A
#POWELL BUTTE   N/A         62  38  41  W2      29.57R
#PRINEVILLE 3N  N/A         55  44  66  E1      29.74R
#WARM SPRINGS   N/A         68  46  45  S6      29.83S

$$


ORZ509-300510-
EAST SLOPES OF OREGON CASCADES

CITY            SKY/WX      TMP DP  RH  WIND    PRES   REMARKS
#BLUE BOX PASS  N/A         51  -1  11  W2      N/A
#CAMP SHERMAN   N/A         55  46  72  CALM    29.83R
#LA PINE 4NW    N/A         57  41  55  CALM    29.82R
#SISTERS AIRPOR N/A         61  52  72  CALM    30.17S
#SISTERS 1NW    N/A         61  44  53  NW13    N/A
#SISTERS 3N     N/A         60  44  55  CALM    29.93R
#SUNRIVER       N/A         58  42  55  CALM    29.66R
#TUMALO 3W      N/A         61  42  50  S7      29.67R

$$

ORZ044-300510-
LOWER COLUMBIA BASIN...OREGON

CITY            SKY/WX      TMP DP  RH  WIND    PRES   REMARKS
HERMISTON       PTCLDY      68  47  47  W8      29.82R
#BOARDMAN SCHOOLN/A         71  49  46  SW2     29.83R
#BOARDMAN 8SW   N/A         69  51  53  SW1     29.80R
#ECHO 8SW       N/A         67  47  49  W5      29.83R
#IONE SCHOOL    N/A         67  46  47  CALM    29.82R
#IRRIGON 4NW    N/A         71  49  46  SW7     N/A
#UMATILLA SCHOOLN/A         70  56  61  CALM    29.87R
#UMATILLA       N/A         71  47  42  SW1     29.73R
$$

ORZ507-300510-
NORTHERN FOOTHILLS OF THE BLUES

CITY            SKY/WX      TMP DP  RH  WIND    PRES   REMARKS
PENDLETON AIRPT MOCLDY      68  43  40  S5      29.86R
#ADAMS 3WNW     N/A         63  43  48  CALM    29.78R
#ATHENA         N/A         65  43  45  CALM    29.81R
#CAYUSE         N/A         66  45  47  E1      29.78R
#HELIX SCHOOL   N/A         63  44  50  CALM    29.79R
#HELIX 3N       N/A         63  42  46  N2      29.85R
#HELIX 6SW      N/A         64  43  46  CALM    29.86R
#HOLDMAN 6E     N/A         65  44  46  CALM    29.61R
#M-F GROVE ELEM N/A         69  40  35  CALM    29.83R
#M-FREEWATER 5SEN/A         67  48  50  CALM    29.85
#PENDLETON DNTN N/A         67  41  39  CALM    29.87S
#PDT AQUATIC CTRN/A         67  41  39  W3      29.85R
#PDT SUNRIDGE   N/A         63  45  52  CALM    29.86R
#PENDLETON 7NW  N/A         66  45  47  CALM    32.07S
#TUTUILLA       N/A         61  45  56  CALM    29.81S
#WESTON SCHOOL  N/A         66  39  37  CALM    29.78R

$$

ORZ508-300510-
SOUTHERN FOOTHILLS OF THE BLUES

CITY            SKY/WX      TMP DP  RH  WIND    PRES   REMARKS
#AJAX           N/A         64  40  41  SW9     29.82R
#CONDON SCHOOL  N/A         61  44  53  W5      29.86R
#CONDON 5W      N/A         58  42  55  W9      29.87R
#FOSSIL SCHOOL  N/A         66  51  58  CALM    29.94S
#HEPPNER EOC    N/A         64  44  48  W3      29.72R
#HEPPNER 4NE    N/A         60  43  53  CALM    29.76R
#LEXINGTON 2SE  N/A         65  44  46  CALM    29.84R
#OLEX 4N        N/A         64  48  56  CALM    29.82R
#RUGGS 5NE      N/A         62  39  43  W3      30.07R
#RUGGS 2SW      N/A         61  42  50  W3      29.78R

$$

ORZ502-503-300510-
BLUE MOUNTAINS

CITY            SKY/WX      TMP DP  RH  WIND    PRES   REMARKS
MEACHAM         PTCLDY      56  41  57  CALM    29.95R
#BATTLE MTN DOT N/A         56  48  74  N2      N/A
#HEPPNER 15SE   N/A         54  40  59  CALM    29.86R
#LONG CREEK HS  N/A         62  43  50  CALM    29.88R
#N POWDER DOT   N/A         62  47  58  N12     N/A
#PIKES PEAK     N/A         62  41  46  SW14    27.99S
#TOLLGATE       N/A         52  40  63  CALM    29.86R
#TROY SCHOOL    N/A         73  46  38  CALM    29.62R
#UKIAH          N/A         57  42  57  CALM    29.80R
#WESTON 4E      N/A         61  42  50  CALM    29.70R
$$

ORZ505-300510-
JOHN DAY BASIN

CITY            SKY/WX      TMP DP  RH  WIND    PRES   REMARKS
JOHN DAY        PTCLDY      65  39  38  NW6     29.93R
#JOHN DAY KJDY  N/A         69  66  90  CALM    30.10F
#DAYVILLE SCHOOLN/A         70  37  30  NW1     29.87R
#MITCHELL       N/A         64  44  48  CALM    30.08R
#MITCHELL 8NW   N/A         62  39  43  CALM    29.93R
#MONUMENT HS    N/A         71  38  30  NW6     29.88R
#MT. VERNON 5SE N/A         64  39  40  CALM    29.88R
#SPRAY SCHOOL   N/A         70  N/A N/A CALM    N/A
$$

ORZ506-300510-
OCHOCO AND JOHN DAY HIGHLANDS

CITY            SKY/WX      TMP DP  RH  WIND    PRES   REMARKS
#PINE MTN OBS   N/A         51  37  59  S5      N/A
#PRAIRIE CITY   N/A         65  43  45  SW1     29.79R
#SENECA         N/A         61  N/A N/A CALM    N/A
#SENECA 9NW     N/A         59  37  44  CALM    29.69R
$$

ORZ049-300510-
GRANDE RONDE VALLEY

CITY            SKY/WX      TMP DP  RH  WIND    PRES   REMARKS
LA GRANDE       PTCLDY      64  36  35  NW9     29.90R
#COVE           N/A         61  46  58  CALM    29.93R
#COVE SCHOOL    N/A         62  44  52  CALM    29.93R
#COVE 6NW       N/A         61  43  51  N6      29.83R
#ELGIN 3N       N/A         65  40  40  NW1     29.89R
#ELGIN 1E       N/A         66  43  43  CALM    N/A
#ISLAND CITY 4N N/A         66  53  63  S1      29.82R
#LADD CYN DOT   N/A         65  44  46  NW7     N/A
#LA GRANDE ELEM N/A         64  43  46  W5      29.94R
#UNION 1S       N/A         64  44  48  NW2     29.67R
$$

ORZ050-300510-
WALLOWA COUNTY

CITY            SKY/WX      TMP DP  RH  WIND    PRES   REMARKS
#ENTERPRISE HS  N/A         63  45  52  NW3     29.94R
#IMNAHA SCHOOL  N/A         74  52  46  N6      29.82R
#IMNAHA 10S     N/A         67  51  56  SW2     29.87F
#JOSEPH 3N      N/A         60  40  47  NW5     29.96R
#JOSEPH 3W      N/A         60  45  58  NW1     29.82S
#LOSTINE        N/A         63  44  50  CALM    29.58R
#MT HOWARD 8000 N/A         46  44  93  N1      30.10F
#PROMISE 1S     N/A         62  42  48  S3      29.86F
#WALLOWA SCHOOL N/A         65  43  45  CALM    29.88R



$$



USA.gov is the U.S. government's official web portal to all federal, state and local government web resources and services.